"Sample Date","Sample Time","Sample Value","Units","Flow Rate","Sample Interval","Number Channels","Micron Size 0","Counts/Channel 0","Micron Size 1","Counts/Channel 1","Micron Size 2","Counts/Channel 2","Micron Size 3","Counts/Channel 3","Micron Size 4","Counts/Channel 4","Micron Size 5","Counts/Channel 5","Micron Size 6","Counts/Channel 6","Micron Size 7","Counts/Channel 7","Micron Size 8","Counts/Channel 8","Micron Size 9","Counts/Channel 9","Micron Size 10","Counts/Channel 10","Micron Size 11","Counts/Channel 11","Micron Size 12","Counts/Channel 12","Micron Size 13","Counts/Channel 13","Micron Size 14","Counts/Channel 14","Micron Size 15","Counts/Channel 15","Micron Size 16","Counts/Channel 16","Micron Size 17","Counts/Channel 17","Micron Size 18","Counts/Channel 18","Micron Size 19","Counts/Channel 19","Micron Size 20","Counts/Channel 20","Micron Size 21","Counts/Channel 21","Micron Size 22","Counts/Channel 22","Micron Size 23","Counts/Channel 23","Micron Size 24","Counts/Channel 24","Micron Size 25","Counts/Channel 25","Micron Size 26","Counts/Channel 26","Micron Size 27","Counts/Channel 27","Micron Size 28","Counts/Channel 28","Micron Size 29","Counts/Channel 29","Micron Size 30","Counts/Channel 30","Micron Size 31","Counts/Channel 31"
"03/04/08","20:00:05",45890.000,"cc",28285.313,6.00,6,0.100,41164.000,0.200,2693.000,0.300,819.000,0.500,937.000,1.000,277.000,5.000,0
"03/04/08","20:00:11",44903.000,"cc",28272.565,6.00,6,0.100,40291.000,0.200,2611.000,0.300,863.000,0.500,850.000,1.000,288.000,5.000,0
"03/04/08","20:00:17",45614.000,"cc",28314.666,6.00,6,0.100,40903.000,0.200,2705.000,0.300,858.000,0.500,858.000,1.000,290.000,5.000,0
"03/04/08","20:00:23",45662.000,"cc",28326.670,6.00,6,0.100,41016.000,0.200,2719.000,0.300,843.000,0.500,811.000,1.000,273.000,5.000,0
"03/04/08","20:00:29",45070.000,"cc",28333.250,6.00,6,0.100,40375.000,0.200,2622.000,0.300,854.000,0.500,896.000,1.000,323.000,5.000,0
"03/04/08","20:00:35",45401.000,"cc",28346.188,6.00,6,0.100,40691.000,0.200,2772.000,0.300,837.000,0.500,821.000,1.000,280.000,5.000,0
"03/04/08","20:00:41",45129.000,"cc",28291.510,6.00,6,0.100,40500.000,0.200,2666.000,0.300,782.000,0.500,849.000,1.000,332.000,5.000,0
"03/04/08","20:00:47",45294.000,"cc",28303.447,6.00,6,0.100,40736.000,0.200,2586.000,0.300,806.000,0.500,886.000,1.000,280.000,5.000,0
"03/04/08","20:00:53",45441.000,"cc",28373.150,6.00,6,0.100,40734.000,0.200,2658.000,0.300,847.000,0.500,905.000,1.000,297.000,5.000,0
"03/04/08","20:00:59",45013.000,"cc",28279.023,6.00,6,0.100,40364.000,0.200,2572.000,0.300,868.000,0.500,909.000,1.000,300.000,5.000,0
"03/04/08","20:01:05",45130.000,"cc",28282.315,6.00,6,0.100,40410.000,0.200,2708.000,0.300,827.000,0.500,864.000,1.000,321.000,5.000,0
"03/04/08","20:01:11",45010.000,"cc",28319.606,6.00,6,0.100,40232.000,0.200,2704.000,0.300,883.000,0.500,908.000,1.000,283.000,5.000,0
"03/04/08","20:01:17",45491.000,"cc",28342.254,6.00,6,0.100,40752.000,0.200,2668.000,0.300,890.000,0.500,843.000,1.000,338.000,5.000,0
"03/04/08","20:01:23",44690.000,"cc",28363.523,6.00,6,0.100,40017.000,0.200,2600.000,0.300,875.000,0.500,902.000,1.000,296.000,5.000,0
"03/04/08","20:01:29",44965.000,"cc",28289.428,6.00,6,0.100,40303.000,0.200,2671.000,0.300,850.000,0.500,856.000,1.000,285.000,5.000,0
"03/04/08","20:01:35",44885.000,"cc",28309.922,6.00,6,0.100,40170.000,0.200,2722.000,0.300,836.000,0.500,869.000,1.000,288.000,5.000,0
"03/04/08","20:01:41",44672.000,"cc",28345.502,6.00,6,0.100,40029.000,0.200,2657.000,0.300,827.000,0.500,869.000,1.000,290.000,5.000,0
"03/04/08","20:01:47",44615.000,"cc",28353.580,6.00,6,0.100,40027.000,0.200,2641.000,0.300,789.000,0.500,850.000,1.000,308.000,5.000,0
"03/04/08","20:01:53",44441.000,"cc",28357.801,6.00,6,0.100,39881.000,0.200,2641.000,0.300,824.000,0.500,818.000,1.000,277.000,5.000,0
"03/04/08","20:01:59",44535.000,"cc",28303.109,6.00,6,0.100,39959.000,0.200,2644.000,0.300,852.000,0.500,787.000,1.000,293.000,5.000,0
"03/04/08","20:02:05",45100.000,"cc",28341.744,6.00,6,0.100,40319.000,0.200,2704.000,0.300,890.000,0.500,851.000,1.000,336.000,5.000,0
"03/04/08","20:02:11",44581.000,"cc",28294.207,6.00,6,0.100,39846.000,0.200,2666.000,0.300,883.000,0.500,887.000,1.000,299.000,5.000,0
"03/04/08","20:02:17",45036.000,"cc",28320.035,6.00,6,0.100,40154.000,0.200,2790.000,0.300,878.000,0.500,895.000,1.000,319.000,5.000,0
"03/04/08","20:02:23",44937.000,"cc",28315.389,6.00,6,0.100,40284.000,0.200,2651.000,0.300,806.000,0.500,901.000,1.000,295.000,5.000,0
"03/04/08","20:02:29",45116.000,"cc",28296.068,6.00,6,0.100,40394.000,0.200,2688.000,0.300,819.000,0.500,885.000,1.000,330.000,5.000,0
"03/04/08","20:02:35",45535.000,"cc",28304.764,6.00,6,0.100,40789.000,0.200,2699.000,0.300,834.000,0.500,914.000,1.000,299.000,5.000,0
"03/04/08","20:02:41",45144.000,"cc",28311.463,6.00,6,0.100,40470.000,0.200,2653.000,0.300,849.000,0.500,880.000,1.000,292.000,5.000,0
"03/04/08","20:02:47",45133.000,"cc",28329.039,6.00,6,0.100,40430.000,0.200,2619.000,0.300,842.000,0.500,938.000,1.000,304.000,5.000,0
"03/04/08","20:02:53",45219.000,"cc",28221.793,6.00,6,0.100,40387.000,0.200,2744.000,0.300,863.000,0.500,910.000,1.000,315.000,5.000,0
"03/04/08","20:02:59",45534.000,"cc",28306.090,6.00,6,0.100,40751.000,0.200,2692.000,0.300,895.000,0.500,872.000,1.000,324.000,5.000,0
"03/04/08","20:03:05",45389.000,"cc",28317.518,6.00,6,0.100,40649.000,0.200,2658.000,0.300,847.000,0.500,931.000,1.000,304.000,5.000,0
"03/04/08","20:03:11",45393.000,"cc",28362.094,6.00,6,0.100,40629.000,0.200,2734.000,0.300,851.000,0.500,871.000,1.000,308.000,5.000,0
"03/04/08","20:03:17",44984.000,"cc",28298.418,6.00,6,0.100,40317.000,0.200,2614.000,0.300,880.000,0.500,833.000,1.000,340.000,5.000,0
"03/04/08","20:03:23",45180.000,"cc",28331.031,6.00,6,0.100,40418.000,0.200,2724.000,0.300,844.000,0.500,897.000,1.000,297.000,5.000,0
"03/04/08","20:03:29",45477.000,"cc",28213.291,6.00,6,0.100,40777.000,0.200,2717.000,0.300,868.000,0.500,842.000,1.000,273.000,5.000,0
"03/04/08","20:03:35",45382.000,"cc",28387.574,6.00,6,0.100,40695.000,0.200,2663.000,0.300,851.000,0.500,845.000,1.000,328.000,5.000,0
"03/04/08","20:03:41",45740.000,"cc",28337.680,6.00,6,0.100,41040.000,0.200,2637.000,0.300,847.000,0.500,918.000,1.000,298.000,5.000,0
"03/04/08","20:03:47",44923.000,"cc",28300.279,6.00,6,0.100,40307.000,0.200,2579.000,0.300,841.000,0.500,889.000,1.000,307.000,5.000,0
"03/04/08","20:03:53",45635.000,"cc",28334.180,6.00,6,0.100,40795.000,0.200,2769.000,0.300,851.000,0.500,895.000,1.000,325.000,5.000,0
"03/04/08","20:03:59",45184.000,"cc",28291.508,6.00,6,0.100,40366.000,0.200,2835.000,0.300,806.000,0.500,880.000,1.000,297.000,5.000,0
"03/04/08","20:04:05",45282.000,"cc",28336.031,6.00,6,0.100,40520.000,0.200,2691.000,0.300,911.000,0.500,836.000,1.000,324.000,5.000,0
"03/04/08","20:04:11",45403.000,"cc",28296.041,6.00,6,0.100,40555.000,0.200,2833.000,0.300,859.000,0.500,857.000,1.000,299.000,5.000,0
"03/04/08","20:04:17",45267.000,"cc",28296.385,6.00,6,0.100,40566.000,0.200,2633.000,0.300,894.000,0.500,857.000,1.000,317.000,5.000,0
"03/04/08","20:04:23",45048.000,"cc",28366.207,6.00,6,0.100,40408.000,0.200,2665.000,0.300,851.000,0.500,862.000,1.000,262.000,5.000,0
"03/04/08","20:04:29",45162.000,"cc",28351.420,6.00,6,0.100,40392.000,0.200,2730.000,0.300,868.000,0.500,888.000,1.000,284.000,5.000,0
"03/04/08","20:04:35",45329.000,"cc",28328.324,6.00,6,0.100,40595.000,0.200,2685.000,0.300,872.000,0.500,839.000,1.000,338.000,5.000,0
"03/04/08","20:04:41",45714.000,"cc",28291.738,6.00,6,0.100,40973.000,0.200,2686.000,0.300,883.000,0.500,879.000,1.000,293.000,5.000,0
"03/04/08","20:04:47",45445.000,"cc",28324.906,6.00,6,0.100,40696.000,0.200,2640.000,0.300,882.000,0.500,915.000,1.000,312.000,5.000,0
"03/04/08","20:04:53",45815.000,"cc",28288.697,6.00,6,0.100,41013.000,0.200,2748.000,0.300,861.000,0.500,858.000,1.000,335.000,5.000,0
"03/04/08","20:04:59",45425.000,"cc",28337.846,6.00,6,0.100,40689.000,0.200,2725.000,0.300,842.000,0.500,847.000,1.000,322.000,5.000,0
"03/04/08","20:05:05",45516.000,"cc",28329.125,6.00,6,0.100,40781.000,0.200,2754.000,0.300,818.000,0.500,862.000,1.000,301.000,5.000,0
"03/04/08","20:05:11",45556.000,"cc",28265.398,6.00,6,0.100,40755.000,0.200,2762.000,0.300,833.000,0.500,885.000,1.000,321.000,5.000,0
"03/04/08","20:05:17",45654.000,"cc",28287.650,6.00,6,0.100,40949.000,0.200,2689.000,0.300,811.000,0.500,905.000,1.000,300.000,5.000,0
"03/04/08","20:05:23",45973.000,"cc",28322.184,6.00,6,0.100,41118.000,0.200,2712.000,0.300,875.000,0.500,952.000,1.000,316.000,5.000,0
"03/04/08","20:05:29",45865.000,"cc",28333.516,6.00,6,0.100,41129.000,0.200,2765.000,0.300,848.000,0.500,839.000,1.000,284.000,5.000,0
"03/04/08","20:05:35",45543.000,"cc",28346.900,6.00,6,0.100,40706.000,0.200,2795.000,0.300,836.000,0.500,907.000,1.000,298.000,5.000,1.000
"03/04/08","20:05:41",45317.000,"cc",28365.147,6.00,6,0.100,40549.000,0.200,2734.000,0.300,830.000,0.500,883.000,1.000,321.000,5.000,0
"03/04/08","20:05:47",45161.000,"cc",28279.586,6.00,6,0.100,40657.000,0.200,2579.000,0.300,799.000,0.500,829.000,1.000,297.000,5.000,0
"03/04/08","20:05:53",45077.000,"cc",28380.279,6.00,6,0.100,40427.000,0.200,2656.000,0.300,846.000,0.500,861.000,1.000,287.000,5.000,0
"03/04/08","20:05:59",44859.000,"cc",28306.266,6.00,6,0.100,40167.000,0.200,2687.000,0.300,813.000,0.500,874.000,1.000,318.000,5.000,0
"03/04/08","20:06:05",45029.000,"cc",28271.109,6.00,6,0.100,40312.000,0.200,2745.000,0.300,828.000,0.500,850.000,1.000,294.000,5.000,0
"03/04/08","20:06:11",45422.000,"cc",28271.647,6.00,6,0.100,40683.000,0.200,2700.000,0.300,818.000,0.500,913.000,1.000,308.000,5.000,0
"03/04/08","20:06:17",45249.000,"cc",28298.484,6.00,6,0.100,40508.000,0.200,2731.000,0.300,852.000,0.500,867.000,1.000,291.000,5.000,0
"03/04/08","20:06:23",45322.000,"cc",28354.606,6.00,6,0.100,40559.000,0.200,2727.000,0.300,800.000,0.500,890.000,1.000,346.000,5.000,0
"03/04/08","20:06:29",45604.000,"cc",28353.043,6.00,6,0.100,40918.000,0.200,2661.000,0.300,862.000,0.500,836.000,1.000,327.000,5.000,0
"03/04/08","20:06:35",45451.000,"cc",28329.570,6.00,6,0.100,40832.000,0.200,2591.000,0.300,829.000,0.500,860.000,1.000,339.000,5.000,0
"03/04/08","20:06:41",45724.000,"cc",28338.272,6.00,6,0.100,40988.000,0.200,2628.000,0.300,889.000,0.500,893.000,1.000,326.000,5.000,0
"03/04/08","20:06:47",45181.000,"cc",28329.506,6.00,6,0.100,40416.000,0.200,2741.000,0.300,859.000,0.500,880.000,1.000,285.000,5.000,0
"03/04/08","20:06:53",45248.000,"cc",28250.971,6.00,6,0.100,40549.000,0.200,2648.000,0.300,858.000,0.500,908.000,1.000,285.000,5.000,0
"03/04/08","20:06:59",45439.000,"cc",28269.441,6.00,6,0.100,40649.000,0.200,2729.000,0.300,881.000,0.500,848.000,1.000,332.000,5.000,0
"03/04/08","20:07:05",45650.000,"cc",28357.764,6.00,6,0.100,40873.000,0.200,2725.000,0.300,836.000,0.500,898.000,1.000,318.000,5.000,0
"03/04/08","20:07:11",45627.000,"cc",28349.830,6.00,6,0.100,40879.000,0.200,2702.000,0.300,863.000,0.500,877.000,1.000,306.000,5.000,0
"03/04/08","20:07:17",45575.000,"cc",28359.014,6.00,6,0.100,40852.000,0.200,2752.000,0.300,838.000,0.500,827.000,1.000,306.000,5.000,0
"03/04/08","20:07:23",45563.000,"cc",28236.420,6.00,6,0.100,40912.000,0.200,2717.000,0.300,800.000,0.500,846.000,1.000,288.000,5.000,0
"03/04/08","20:07:29",45711.000,"cc",28301.354,6.00,6,0.100,40878.000,0.200,2764.000,0.300,800.000,0.500,947.000,1.000,322.000,5.000,0
"03/04/08","20:07:35",45649.000,"cc",28275.225,6.00,6,0.100,40859.000,0.200,2703.000,0.300,865.000,0.500,934.000,1.000,287.000,5.000,1.000
"03/04/08","20:07:41",45399.000,"cc",28404.844,6.00,6,0.100,40611.000,0.200,2758.000,0.300,831.000,0.500,892.000,1.000,307.000,5.000,0
"03/04/08","20:07:47",45558.000,"cc",28346.940,6.00,6,0.100,40811.000,0.200,2745.000,0.300,788.000,0.500,881.000,1.000,333.000,5.000,0
"03/04/08","20:07:53",45653.000,"cc",28315.016,6.00,6,0.100,40984.000,0.200,2669.000,0.300,821.000,0.500,860.000,1.000,319.000,5.000,0
"03/04/08","20:07:59",45424.000,"cc",28292.377,6.00,6,0.100,40680.000,0.200,2633.000,0.300,850.000,0.500,931.000,1.000,330.000,5.000,0
"03/04/08","20:08:05",45730.000,"cc",28325.338,6.00,6,0.100,40963.000,0.200,2701.000,0.300,835.000,0.500,912.000,1.000,319.000,5.000,0
"03/04/08","20:08:11",45423.000,"cc",28298.279,6.00,6,0.100,40700.000,0.200,2695.000,0.300,798.000,0.500,895.000,1.000,335.000,5.000,0
"03/04/08","20:08:17",45429.000,"cc",28372.910,6.00,6,0.100,40668.000,0.200,2719.000,0.300,853.000,0.500,861.000,1.000,328.000,5.000,0
"03/04/08","20:08:23",45647.000,"cc",28333.775,6.00,6,0.100,40873.000,0.200,2728.000,0.300,881.000,0.500,848.000,1.000,317.000,5.000,0
"03/04/08","20:08:29",45701.000,"cc",28275.775,6.00,6,0.100,40889.000,0.200,2756.000,0.300,831.000,0.500,898.000,1.000,327.000,5.000,0
"03/04/08","20:08:35",45535.000,"cc",28271.578,6.00,6,0.100,40880.000,0.200,2706.000,0.300,822.000,0.500,854.000,1.000,273.000,5.000,0
"03/04/08","20:08:41",45508.000,"cc",28308.695,6.00,6,0.100,40748.000,0.200,2724.000,0.300,839.000,0.500,857.000,1.000,340.000,5.000,0
"03/04/08","20:08:47",45753.000,"cc",28358.184,6.00,6,0.100,40902.000,0.200,2716.000,0.300,882.000,0.500,925.000,1.000,328.000,5.000,0
"03/04/08","20:08:53",45492.000,"cc",28310.156,6.00,6,0.100,40822.000,0.200,2692.000,0.300,826.000,0.500,870.000,1.000,282.000,5.000,0
"03/04/08","20:08:59",45262.000,"cc",28336.041,6.00,6,0.100,40484.000,0.200,2771.000,0.300,807.000,0.500,890.000,1.000,310.000,5.000,0
"03/04/08","20:09:05",45792.000,"cc",28323.481,6.00,6,0.100,41055.000,0.200,2720.000,0.300,818.000,0.500,896.000,1.000,303.000,5.000,0
"03/04/08","20:09:11",45943.000,"cc",28329.986,6.00,6,0.100,41102.000,0.200,2770.000,0.300,875.000,0.500,911.000,1.000,285.000,5.000,0
"03/04/08","20:09:17",45581.000,"cc",28286.674,6.00,6,0.100,40762.000,0.200,2814.000,0.300,797.000,0.500,882.000,1.000,326.000,5.000,0
"03/04/08","20:09:23",45747.000,"cc",28330.289,6.00,6,0.100,41132.000,0.200,2655.000,0.300,848.000,0.500,836.000,1.000,276.000,5.000,0
"03/04/08","20:09:29",45452.000,"cc",28340.131,6.00,6,0.100,40837.000,0.200,2646.000,0.300,839.000,0.500,814.000,1.000,316.000,5.000,0
"03/04/08","20:09:35",45702.000,"cc",28330.619,6.00,6,0.100,40948.000,0.200,2674.000,0.300,882.000,0.500,863.000,1.000,335.000,5.000,0
"03/04/08","20:09:41",45595.000,"cc",28309.301,6.00,6,0.100,40840.000,0.200,2711.000,0.300,803.000,0.500,918.000,1.000,323.000,5.000,0
"03/04/08","20:09:47",45573.000,"cc",28352.897,6.00,6,0.100,40850.000,0.200,2699.000,0.300,844.000,0.500,862.000,1.000,318.000,5.000,0
"03/04/08","20:09:53",45512.000,"cc",28226.012,6.00,6,0.100,40948.000,0.200,2668.000,0.300,782.000,0.500,861.000,1.000,253.000,5.000,0
"03/04/08","20:09:59",45894.000,"cc",28314.428,6.00,6,0.100,41263.000,0.200,2620.000,0.300,841.000,0.500,865.000,1.000,305.000,5.000,0
"03/04/08","20:10:05",45698.000,"cc",28316.022,6.00,6,0.100,40998.000,0.200,2684.000,0.300,868.000,0.500,849.000,1.000,299.000,5.000,0
"03/04/08","20:10:11",45757.000,"cc",28301.592,6.00,6,0.100,40978.000,0.200,2684.000,0.300,857.000,0.500,943.000,1.000,295.000,5.000,0
"03/04/08","20:10:17",45832.000,"cc",28292.188,6.00,6,0.100,40964.000,0.200,2783.000,0.300,866.000,0.500,899.000,1.000,320.000,5.000,0
"03/04/08","20:10:23",45422.000,"cc",28384.389,6.00,6,0.100,40599.000,0.200,2811.000,0.300,898.000,0.500,835.000,1.000,279.000,5.000,0
"03/04/08","20:10:29",45600.000,"cc",28299.574,6.00,6,0.100,40866.000,0.200,2674.000,0.300,848.000,0.500,875.000,1.000,337.000,5.000,0
"03/04/08","20:10:35",45744.000,"cc",28318.270,6.00,6,0.100,41045.000,0.200,2734.000,0.300,797.000,0.500,854.000,1.000,314.000,5.000,0
"03/04/08","20:10:41",45750.000,"cc",28323.598,6.00,6,0.100,41057.000,0.200,2706.000,0.300,826.000,0.500,878.000,1.000,283.000,5.000,0
"03/04/08","20:10:47",45417.000,"cc",28283.748,6.00,6,0.100,40769.000,0.200,2697.000,0.300,832.000,0.500,821.000,1.000,298.000,5.000,0
"03/04/08","20:10:53",45499.000,"cc",28311.143,6.00,6,0.100,40754.000,0.200,2731.000,0.300,856.000,0.500,843.000,1.000,315.000,5.000,0
"03/04/08","20:10:59",46067.000,"cc",28337.836,6.00,6,0.100,41372.000,0.200,2676.000,0.300,851.000,0.500,869.000,1.000,299.000,5.000,0
"03/04/08","20:11:05",45557.000,"cc",28325.932,6.00,6,0.100,40894.000,0.200,2726.000,0.300,801.000,0.500,846.000,1.000,290.000,5.000,0
"03/04/08","20:11:11",46466.000,"cc",28278.297,6.00,6,0.100,41514.000,0.200,2839.000,0.300,904.000,0.500,901.000,1.000,308.000,5.000,0
"03/04/08","20:11:17",45781.000,"cc",28314.537,6.00,6,0.100,41120.000,0.200,2714.000,0.300,833.000,0.500,847.000,1.000,267.000,5.000,0
"03/04/08","20:11:23",46230.000,"cc",28327.607,6.00,6,0.100,41535.000,0.200,2728.000,0.300,811.000,0.500,857.000,1.000,299.000,5.000,0
"03/04/08","20:11:29",46143.000,"cc",28332.777,6.00,6,0.100,41398.000,0.200,2749.000,0.300,839.000,0.500,832.000,1.000,325.000,5.000,0
"03/04/08","20:11:35",46132.000,"cc",28300.250,6.00,6,0.100,41395.000,0.200,2723.000,0.300,874.000,0.500,859.000,1.000,281.000,5.000,0
"03/04/08","20:11:41",46110.000,"cc",28301.783,6.00,6,0.100,41242.000,0.200,2799.000,0.300,906.000,0.500,874.000,1.000,289.000,5.000,0
"03/04/08","20:11:47",46106.000,"cc",28344.102,6.00,6,0.100,41349.000,0.200,2748.000,0.300,856.000,0.500,858.000,1.000,295.000,5.000,0
"03/04/08","20:11:53",45804.000,"cc",28337.488,6.00,6,0.100,40982.000,0.200,2699.000,0.300,937.000,0.500,869.000,1.000,317.000,5.000,0
"03/04/08","20:11:59",46018.000,"cc",28325.859,6.00,6,0.100,41254.000,0.200,2719.000,0.300,904.000,0.500,861.000,1.000,280.000,5.000,0
"03/04/08","20:12:05",45700.000,"cc",28297.322,6.00,6,0.100,40843.000,0.200,2768.000,0.300,897.000,0.500,903.000,1.000,289.000,5.000,0
"03/04/08","20:12:11",45972.000,"cc",28293.307,6.00,6,0.100,41128.000,0.200,2777.000,0.300,863.000,0.500,918.000,1.000,286.000,5.000,0
"03/04/08","20:12:17",46443.000,"cc",28376.551,6.00,6,0.100,41579.000,0.200,2762.000,0.300,860.000,0.500,885.000,1.000,357.000,5.000,0
"03/04/08","20:12:23",46120.000,"cc",28273.988,6.00,6,0.100,41361.000,0.200,2701.000,0.300,834.000,0.500,892.000,1.000,332.000,5.000,0
"03/04/08","20:12:29",46001.000,"cc",28282.320,6.00,6,0.100,41331.000,0.200,2660.000,0.300,837.000,0.500,874.000,1.000,299.000,5.000,0
"03/04/08","20:12:35",46321.000,"cc",28323.746,6.00,6,0.100,41495.000,0.200,2739.000,0.300,868.000,0.500,900.000,1.000,319.000,5.000,0
"03/04/08","20:12:41",45862.000,"cc",28251.775,6.00,6,0.100,41060.000,0.200,2750.000,0.300,792.000,0.500,935.000,1.000,325.000,5.000,0
"03/04/08","20:12:47",45915.000,"cc",28398.647,6.00,6,0.100,41260.000,0.200,2644.000,0.300,859.000,0.500,861.000,1.000,291.000,5.000,0
"03/04/08","20:12:53",45875.000,"cc",28359.742,6.00,6,0.100,41099.000,0.200,2766.000,0.300,837.000,0.500,876.000,1.000,297.000,5.000,0
"03/04/08","20:12:59",45854.000,"cc",28264.344,6.00,6,0.100,41076.000,0.200,2752.000,0.300,821.000,0.500,885.000,1.000,320.000,5.000,0
"03/04/08","20:13:05",46024.000,"cc",28299.068,6.00,6,0.100,41258.000,0.200,2709.000,0.300,852.000,0.500,878.000,1.000,327.000,5.000,0
"03/04/08","20:13:11",45850.000,"cc",28290.922,6.00,6,0.100,41207.000,0.200,2627.000,0.300,827.000,0.500,902.000,1.000,287.000,5.000,0
"03/04/08","20:13:17",45796.000,"cc",28359.330,6.00,6,0.100,41174.000,0.200,2616.000,0.300,817.000,0.500,865.000,1.000,324.000,5.000,0
"03/04/08","20:13:23",45808.000,"cc",28330.068,6.00,6,0.100,41061.000,0.200,2701.000,0.300,860.000,0.500,885.000,1.000,301.000,5.000,0
"03/04/08","20:13:29",46088.000,"cc",28317.508,6.00,6,0.100,41331.000,0.200,2797.000,0.300,789.000,0.500,870.000,1.000,301.000,5.000,0
"03/04/08","20:13:35",46092.000,"cc",28319.252,6.00,6,0.100,41269.000,0.200,2820.000,0.300,781.000,0.500,894.000,1.000,328.000,5.000,0
"03/04/08","20:13:41",45699.000,"cc",28272.402,6.00,6,0.100,40975.000,0.200,2706.000,0.300,836.000,0.500,883.000,1.000,299.000,5.000,0
"03/04/08","20:13:47",45567.000,"cc",28265.828,6.00,6,0.100,40910.000,0.200,2757.000,0.300,787.000,0.500,840.000,1.000,273.000,5.000,0
"03/04/08","20:13:53",45380.000,"cc",28427.535,6.00,6,0.100,40659.000,0.200,2729.000,0.300,842.000,0.500,852.000,1.000,298.000,5.000,0
"03/04/08","20:13:59",45442.000,"cc",28277.078,6.00,6,0.100,40806.000,0.200,2675.000,0.300,795.000,0.500,873.000,1.000,293.000,5.000,0
"03/04/08","20:14:05",45424.000,"cc",28253.832,6.00,6,0.100,40769.000,0.200,2697.000,0.300,807.000,0.500,834.000,1.000,317.000,5.000,0
"03/04/08","20:14:11",45391.000,"cc",28324.727,6.00,6,0.100,40622.000,0.200,2685.000,0.300,839.000,0.500,911.000,1.000,334.000,5.000,0
"03/04/08","20:14:17",45107.000,"cc",28403.297,6.00,6,0.100,40496.000,0.200,2618.000,0.300,840.000,0.500,878.000,1.000,275.000,5.000,0
"03/04/08","20:14:23",45057.000,"cc",28327.279,6.00,6,0.100,40457.000,0.200,2661.000,0.300,801.000,0.500,826.000,1.000,312.000,5.000,0
"03/04/08","20:14:29",45615.000,"cc",28214.498,6.00,6,0.100,40961.000,0.200,2672.000,0.300,825.000,0.500,864.000,1.000,293.000,5.000,0
"03/04/08","20:14:35",45469.000,"cc",28245.727,6.00,6,0.100,40702.000,0.200,2790.000,0.300,815.000,0.500,874.000,1.000,288.000,5.000,0
"03/04/08","20:14:41",45590.000,"cc",28356.078,6.00,6,0.100,40886.000,0.200,2651.000,0.300,857.000,0.500,884.000,1.000,312.000,5.000,0
"03/04/08","20:14:47",45419.000,"cc",28334.902,6.00,6,0.100,40812.000,0.200,2651.000,0.300,786.000,0.500,874.000,1.000,296.000,5.000,0
"03/04/08","20:14:53",45686.000,"cc",28329.840,6.00,6,0.100,41050.000,0.200,2658.000,0.300,855.000,0.500,820.000,1.000,303.000,5.000,0
"03/04/08","20:14:59",45430.000,"cc",28345.557,6.00,6,0.100,40655.000,0.200,2800.000,0.300,824.000,0.500,837.000,1.000,314.000,5.000,0
"03/04/08","20:15:05",45379.000,"cc",28291.531,6.00,6,0.100,40802.000,0.200,2616.000,0.300,793.000,0.500,865.000,1.000,303.000,5.000,0
"03/04/08","20:15:11",44996.000,"cc",28381.881,6.00,6,0.100,40250.000,0.200,2775.000,0.300,823.000,0.500,856.000,1.000,292.000,5.000,0
"03/04/08","20:15:17",44862.000,"cc",28243.582,6.00,6,0.100,40135.000,0.200,2678.000,0.300,854.000,0.500,892.000,1.000,303.000,5.000,0
"03/04/08","20:15:23",45153.000,"cc",28283.633,6.00,6,0.100,40419.000,0.200,2729.000,0.300,822.000,0.500,897.000,1.000,286.000,5.000,0
"03/04/08","20:15:29",45650.000,"cc",28317.330,6.00,6,0.100,40911.000,0.200,2719.000,0.300,826.000,0.500,886.000,1.000,308.000,5.000,0
"03/04/08","20:15:35",45085.000,"cc",28370.065,6.00,6,0.100,40572.000,0.200,2629.000,0.300,771.000,0.500,838.000,1.000,275.000,5.000,0
"03/04/08","20:15:41",45533.000,"cc",28274.428,6.00,6,0.100,40943.000,0.200,2622.000,0.300,820.000,0.500,864.000,1.000,283.000,5.000,1.000
"03/04/08","20:15:47",45470.000,"cc",28323.389,6.00,6,0.100,40766.000,0.200,2640.000,0.300,890.000,0.500,868.000,1.000,306.000,5.000,0
"03/04/08","20:15:53",45358.000,"cc",28306.914,6.00,6,0.100,40673.000,0.200,2637.000,0.300,805.000,0.500,909.000,1.000,334.000,5.000,0
"03/04/08","20:15:59",45192.000,"cc",28271.617,6.00,6,0.100,40604.000,0.200,2623.000,0.300,853.000,0.500,809.000,1.000,303.000,5.000,0
"03/04/08","20:16:05",45554.000,"cc",28356.514,6.00,6,0.100,40825.000,0.200,2780.000,0.300,830.000,0.500,836.000,1.000,283.000,5.000,0
"03/04/08","20:16:11",45769.000,"cc",28297.680,6.00,6,0.100,40953.000,0.200,2739.000,0.300,879.000,0.500,908.000,1.000,290.000,5.000,0
"03/04/08","20:16:17",45433.000,"cc",28338.539,6.00,6,0.100,40707.000,0.200,2639.000,0.300,860.000,0.500,889.000,1.000,338.000,5.000,0
"03/04/08","20:16:23",45771.000,"cc",28296.518,6.00,6,0.100,41002.000,0.200,2721.000,0.300,816.000,0.500,919.000,1.000,313.000,5.000,0
"03/04/08","20:16:29",45694.000,"cc",28335.242,6.00,6,0.100,41073.000,0.200,2675.000,0.300,827.000,0.500,828.000,1.000,291.000,5.000,0
"03/04/08","20:16:35",45404.000,"cc",28303.877,6.00,6,0.100,40697.000,0.200,2724.000,0.300,839.000,0.500,840.000,1.000,304.000,5.000,0
"03/04/08","20:16:41",45777.000,"cc",28388.934,6.00,6,0.100,40982.000,0.200,2754.000,0.300,862.000,0.500,866.000,1.000,313.000,5.000,0